www.pogodaiklimat.ru

Погода и климат >> Архив погоды >> Мексика >> Hermosillo


ПОГОДА в Hermosillo

  • Прогноз погоды в Hermosillo
  • Монитор погоды в Hermosillo
  • Климат города

АРХИВ ПОГОДЫ в Hermosillo

Время (UTC), дата Ветер
(напр.,м/с)
 
Видим.   Явления Облачность Т
(С)
Тd
(С)
f
(%)
Тe
(С)
Тes
(С)
Комфортность P
(гПа)
Po
(гПа)
Тmin
(С)
Tmax
(С)
R
(мм)
R24
(мм)
S
(см)
06 8.08 ЮВ 1 8000 м 9/0 2000 м
[As op]
+30.2 +23.1 66 +40 +40 очень
душно
1013.2 989.8 +26.0 +40.0
15 8.08 СВ 1 12 км 6/6 900 м
[Sc]
+29.0 +23.3 71 +39 +41 очень
душно
1012.0 988.5
18 8.08 В 2 12 км 5/5 900 м
[Sc diur, vesp]
+35.8 +22.5 46 +45 +54 опасность
перегрева
1011.6 988.4 +23.5 +35.8
21 8.08 ЮЗ 1 12 км 3/3 900 м
[Sc]
+40.0 +17.7 27 +43 +57 опасность
перегрева
1009.2 986.0
00 9.08 З 3 12 км 5/5 600 м
[Sc]
+41.0 +19.5 29 +46 +47 опасность
перегрева
1006.7 983.8 +23.5 +41.5
03 9.08 В 4 8000 м морось {метель} 10/10 900 м
[Frnb]
+26.0 +21.2 75 +33 +33 очень
душно
1012.7 989.4 9
15 9.08 СВ 2 12 км 5/5 900 м
[Sc]
+26.6 +23.3 82 +36 +38 очень
душно
1014.6 990.5
18 9.08 В 1 12 км 4/4 900 м
[Sc diur, vesp]
+33.4 +23.4 56 +44 +57 опасность
перегрева
1014.6 990.8 +22.5 +33.4
21 9.08 С 1 12 км 4/4 900 м
[Sc]
+36.2 +19.9 39 +42 +55 опасность
перегрева
1012.4 989.1
00 10.08 ЮЗ 2 12 км 3/3 600 м
[Sc]
+37.0 +19.5 36 +42 +45 опасность
перегрева
1010.3 987.1 +22.5 +37.5
03 10.08 ЮЗ 1 8000 м 10/4 900 м
[Sc diur, vesp Ac lent Ci ing]
+31.6 +25.6 71 +47 +47 опасность
перегрева
1013.2 989.7
06 10.08 ЮЗ 1 8000 м 3/3 900 м
[Cu hum]
+30.2 +22.5 63 +39 +39 очень
душно
1014.2 990.5 +22.5 +37.5
15 10.08 СВ 1 12 км 4/4 900 м
[Sc diur, vesp]
+28.6 +24.6 79 +41 +44 опасность
перегрева
1014.4 990.7
18 10.08 В 2 12 км 6/6 900 м
[Sc diur, vesp]
+34.8 +22.8 50 +45 +52 опасность
перегрева
1013.9 990.2 +27.5 +34.8
21 10.08 ЮЗ 1 12 км 5/5 900 м
[Sc]
+37.0 +21.3 40 +44 +54 опасность
перегрева
1010.8 987.4
00 11.08 СВ 3 12 км 9/9 600 м
[Sc diur, vesp]
+35.4 +21.6 45 +43 +44 опасность
перегрева
1009.6 986.4 +27.5 +39.0
03 11.08 штиль 0 50 км ?/? +31.8 +23.1 60 +42 +42 опасность
перегрева
1011.1 987.8
06 11.08 СВ 1 8000 м 4/4 900 м
[Sc diur, vesp]
+30.2 +26.0 78 +45 +45 опасность
перегрева
1012.5 989.1 +27.5 +39.0
15 11.08 СВ 1 12 км слабая морось 9/9 900 м
[Sc diur, vesp]
+24.0 +22.9 94 +32 +32 очень
душно
1015.0 990.8 1
18 12.08 штиль 0 12 км 4/3 900 м
[Cu med, cong Ac lent]
+32.4 +24.3 62 +45 +60 опасность
перегрева
1013.6 990.1 +29.0 +32.4
15 13.08 СВ 2 12 км 1/1 900 м
[Sc]
+25.4 +22.0 81 +33 +37 очень
душно
1014.1 990.0
18 13.08 В 1 12 км 3/3 600 м
[Cu hum]
+31.2 +23.9 65 +43 +58 опасность
перегрева
1013.9 990.0 +23.0 +31.2
21 13.08 В 1 12 км 5/5 900 м
[Sc]
+34.0 +22.2 50 +43 +53 опасность
перегрева
1011.0 987.7
00 14.08 ЮЗ 2 12 км 4/4 600 м
[Sc]
+36.0 +21.0 42 +43 +45 опасность
перегрева
1008.4 985.2 +23.0 +37.0
03 14.08 ЮЗ 3 8000 м 3/0
[Ci fib]
+31.0 +22.8 62 +41 +41 опасность
перегрева
1009.8 986.3
06 14.08 штиль 0 8000 м ясно +29.0 +23.6 73 +40 +40 очень
душно
1010.7 987.2 +23.0 +37.0
15 14.08 СВ 1 12 км 9/9 900 м
[Sc]
+27.0 +24.0 84 +37 +38 очень
душно
1011.7 987.9
18 14.08 СВ 2 12 км 9/9 900 м
[Sc]
+30.0 +25.2 76 +44 +46 опасность
перегрева
1012.0 988.2 +26.0 +30.0
21 14.08 СВ 1 12 км 9/9 900 м
[Sc diur, vesp]
+34.4 +23.0 52 +45 +47 опасность
перегрева
1009.2 986.0
00 15.08 З 1 12 км 9/9 600 м
[Sc]
+29.0 +21.4 64 +37 +37 очень
душно
1008.2 984.7 +26.0 +36.0
03 15.08 З 1 8000 м 3/0 2000 м
[Ac und Ci fib]
+27.8 +21.6 69 +36 +36 очень
душно
1009.7 986.0

 

Местоположение метеостанции Hermosillo (Мексика): широта 29.09 долгота -111.05 высота над уровнем моря 191 м.

В архиве по умолчанию представлена погода в Hermosillo за последнюю неделю. Архивные данные за месяц целиком и за предыдущие месяцы, начиная с января 2011 года, Вы можете получить, выбрав интересующий диапазон дат из раскрывающегося списка и нажав кнопку "Ввод!".


*Определитесь, кто Вы:
робот инопланетянин человек

Внимание! Время в таблицах - всемирное. Для получения местного времени необходимо прибавить поправку, которая в Hermosillo равна -7 ч.

Смотрите также архив погоды в соседних городах и на ближайших метеорологических станциях:

Погода в Hermosillo la Magna (Мексика) (10 км)
Погода в Guaymas (Мексика) (131 км)
Погода в Empalme (Мексика) (131 км)
Погода в Pilares de Nacoz (Мексика) (194 км)
Погода в Altar Son (Мексика) (196 км)
Погода в Ciudad Obregon (Мексика) (224 км)
Погода в Santa Rosalia (Мексика) (233 км)
Погода в Temosachic (Мексика) (316 км)
Погода в Nueva Casas Grandes (Мексика) (336 км)
Погода в Loreto (Мексика) (342 км)

Пояснения к столбцам:

Ветер - указаны скорость ветра в м/с - средняя за 10 мин, порывы в срок и между сроками (в фигурных скобках) и направление, откуда дует ветер: С - северный, СВ - северо-восточный, В - восточный, ЮВ - юго-восточный, Ю - южный, ЮЗ - юго-западный, З - западный, СЗ - северо-западный.
Видимость - горизонтальная дальность видимости в метрах или километрах. При видимости от 1 до 10 км при отсутствии осадков обычно наблюдается дымка, при ухудшении видимости до 1 км и менее - туман. В сухую погоду видимость может ухудшаться дымом, пылью или мглою.
Явления - указаны атмосферные явления, наблюдавшиеся в срок или в последний час перед сроком; фигурными скобками обозначены явления, наблюдавшиеся между сроками (за 1-3 часа до срока); квадратными скобками обозначены град или гололедные отложения с указанием их диаметра в мм.
Облачность - указаны через наклонную черту общая и нижняя облачность в баллах и высота нижней границы облаков в метрах; квадратными скобками обозначены формы облаков: Ci - перистые, Cs - перисто-слоистые, Cc - перисто-кучевые, Ac - высококучевые, As - высокослоистые, Sc - слоисто-кучевые, Ns - слоисто-дождевые, Cu - кучевые, Cb - кучево-дождевые. Подробнее классификацию облаков см. в Атласе облаков (PDF).
T - Температура воздуха - температура, измеренная на высоте 2 м над землей.
Td - Температура точки росы - температура, при понижении до которой содержащийся в воздухе водяной пар достигнет насыщения.
f - Относительная влажность воздуха - влажноcть воздуха, измеренная на высоте 2 м над землей.
Te - Эффективная температура - температура, которую ощущает одетый по сезону человек в тени. Характеристика душности погоды. При расчете учитывается влияние влажности воздуха и скорости ветра на теплоощущения человека.
Tes - Эффективная температура на солнце - температура, которую ощущает человек, с поправкой на солнечный нагрев. Характеристика знойности погоды. Зависит от высоты солнца над горизонтом, облачности и скорости ветра. Ночью, в пасмурную погоду, а также при ветре 12 м/с и более поправка равна нулю.
P - Атмосферное давление - приведенное к уровню моря атмосферное давление.
Po - Атмосферное давление - измеренное на уровне метеостанции атмосферное давление.
Tmin - Минимальная температура - минимум температуры воздуха на высоте 2 м над землей.
Tmax - Максимальная температура - максимум температуры воздуха на высоте 2 м над землей.
R - Количество осадков - Количество выпавших осадков за период времени, мм. При наведении курсора мыши на число - период времени, за который выпало указанное количество осадков.
R24 - Количество осадков - Количество выпавших осадков за 24 часа, мм.
S - Снежный покров - Высота снежного покрова, см. При наведении курсора мыши на число - состояние снежного покрова и степень покрытия местности в баллах.